FW8411 Weather Reports


Display with metric or nautical units.
time (UTC)temp
F
wind
direction
speed
MPH
gust
MPH
rain 1hr
in
rain 24hr
in
rain mn
in
humidity
%
barometer
mb
20260503201100 70 293 4.0 7.0 0.00 0.00 0.00 39 997.8
20260503200600 70 195 7.0 12.0 0.00 0.00 0.00 39 998.0
20260503200100 71 265 3.0 12.0 0.00 0.00 0.00 39 998.0
20260503194600 70 292 3.0 12.0 0.00 0.00 0.00 39 998.2
20260503194101 69 202 5.0 12.0 0.00 0.00 0.00 39 998.3
20260503193100 69 206 5.0 13.0 0.00 0.00 0.00 39 998.3
20260503191600 69 157 5.0 16.0 0.00 0.00 0.00 40 998.5
20260503191100 68 190 2.0 8.0 0.00 0.00 0.00 42 998.5
20260503190600 67 186 5.0 12.0 0.00 0.00 0.00 41 998.6
20260503190101 68 206 3.0 12.0 0.00 0.00 0.00 40 998.6
20260503184100 68 194 5.0 9.0 0.00 0.00 0.00 39 998.8
20260503183600 67 261 4.0 9.0 0.00 0.00 0.00 41 998.9
20260503183100 67 197 3.0 12.0 0.00 0.00 0.00 43 999.0
20260503181600 66 183 5.0 13.0 0.00 0.00 0.00 44 999.2
20260503181101 66 190 6.0 14.0 0.00 0.00 0.00 42 999.2
20260503180600 66 185 6.0 12.0 0.00 0.00 0.00 41 999.4
20260503174600 66 169 7.0 15.0 0.00 0.00 0.00 40 999.6
20260503174100 66 193 3.0 10.0 0.00 0.00 0.00 42 999.6
20260503173601 66 198 7.0 13.0 0.00 0.00 0.00 43 999.7
20260503173101 65 177 7.0 16.0 0.00 0.00 0.00 44 999.7
20260503171600 65 193 5.0 12.0 0.00 0.00 0.00 44 1000.0
20260503170600 65 198 10.0 23.0 0.00 0.00 0.00 43 1000.1
20260503150600 57 164 4.0 12.0 0.00 0.00 0.00 58 1001.7
20260503130601 54 176 5.0 12.0 0.00 0.00 0.00 55 1002.6